N4DWK Weather Reports


Display with metric or nautical units.
time (UTC)temp
F
wind
direction
speed
MPH
gust
MPH
rain 1hr
in
rain 24hr
in
rain mn
in
humidity
%
barometer
mb
20260507234005 53 136 0.0 0.0 0.00 0.33 0.33 93 1010.8
20260507233505 53 136 0.0 0.0 0.00 0.33 0.33 93 1010.7
20260507233006 53 136 0.0 0.0 0.00 0.33 0.33 92 1010.8
20260507232505 53 136 0.0 0.0 0.00 0.33 0.33 92 1010.8
20260507232005 53 136 0.0 0.0 0.00 0.33 0.33 92 1010.7
20260507231505 53 136 0.0 0.0 0.00 0.33 0.33 92 1010.6
20260507231005 53 136 0.0 0.0 0.00 0.33 0.33 92 1010.6
20260507230505 53 136 0.0 0.0 0.00 0.33 0.33 92 1010.4
20260507230005 53 136 0.0 0.0 0.00 0.33 0.33 92 1010.4
20260507225505 53 136 0.0 0.0 0.00 0.33 0.33 92 1010.5
20260507225005 53 136 0.0 0.0 0.00 0.33 0.33 92 1010.5
20260507224505 53 136 0.0 0.0 0.00 0.33 0.33 92 1010.6
20260507224005 53 136 0.0 0.0 0.00 0.33 0.33 92 1010.4
20260507223505 53 136 0.0 0.0 0.00 0.33 0.33 92 1010.6
20260507223006 53 136 0.0 0.0 0.00 0.33 0.33 92 1010.6
20260507222505 53 136 0.0 0.0 0.00 0.33 0.33 94 1010.6
20260507222005 53 136 0.0 0.0 0.00 0.33 0.33 93 1010.5
20260507221505 54 136 0.0 0.0 0.00 0.33 0.33 93 1010.6
20260507221006 54 136 0.0 0.0 0.00 0.33 0.33 93 1010.6
20260507220504 53 134 0.0 1.0 0.00 0.33 0.33 93 1010.3
20260507220005 53 134 0.0 3.0 0.00 0.33 0.33 93 1010.3
20260507215505 53 134 1.0 3.0 0.00 0.33 0.33 95 1010.2
20260507215005 53 134 0.0 3.0 0.01 0.33 0.33 93 1010.4
20260507214505 53 134 0.0 0.0 0.01 0.33 0.33 93 1010.4
20260507214006 53 134 0.0 0.0 0.02 0.33 0.33 92 1010.5
20260507213505 53 134 0.0 3.0 0.04 0.33 0.33 92 1010.4
20260507213005 53 134 1.0 3.0 0.05 0.33 0.33 92 1010.3
20260507212505 53 134 0.0 3.0 0.07 0.33 0.33 92 1010.2
20260507212005 53 133 1.0 3.0 0.09 0.33 0.33 92 1010.2
20260507211506 53 134 0.0 3.0 0.10 0.33 0.33 92 1010.2
20260507211005 53 134 1.0 3.0 0.12 0.33 0.33 92 1010.3
20260507210505 53 135 1.0 5.0 0.15 0.33 0.33 91 1010.2
20260507210005 53 123 2.0 5.0 0.17 0.33 0.33 91 1010.1
20260507205504 53 122 1.0 5.0 0.27 0.33 0.33 91 1010.4
20260507205005 54 157 0.0 0.0 0.28 0.32 0.32 91 1010.5
20260507204506 54 163 0.0 0.0 0.28 0.32 0.32 91 1010.6
20260507204005 54 163 0.0 0.0 0.27 0.31 0.31 91 1010.9
20260507203505 54 163 0.0 0.0 0.25 0.29 0.29 90 1010.8
20260507203005 54 163 0.0 0.0 0.24 0.28 0.28 90 1010.4
20260507202506 54 163 0.0 0.0 0.22 0.26 0.26 89 1010.9
20260507202005 54 134 0.0 0.0 0.20 0.24 0.24 88 1010.5
20260507201505 55 134 0.0 0.0 0.19 0.23 0.23 88 1010.6
20260507201005 55 134 0.0 0.0 0.17 0.21 0.21 87 1010.6
20260507200505 55 134 0.0 0.0 0.14 0.18 0.18 87 1010.6
20260507200006 55 200 0.0 0.0 0.12 0.16 0.16 85 1010.7
20260507195504 55 200 0.0 0.0 0.02 0.06 0.06 84 1010.7
20260507195005 55 200 0.0 0.0 0.00 0.04 0.04 83 1011.1
20260507194505 55 127 0.0 3.0 0.00 0.04 0.04 82 1010.6
20260507194006 56 127 0.0 3.0 0.00 0.04 0.04 82 1010.6
20260507193505 56 74 0.0 3.0 0.00 0.04 0.04 82 1010.8
20260507193005 56 44 0.0 6.0 0.00 0.04 0.04 82 1010.8
20260507192505 56 44 1.0 6.0 0.00 0.04 0.04 81 1010.9
20260507192005 56 111 3.0 6.0 0.00 0.04 0.04 80 1010.9
20260507191505 56 23 0.0 3.0 0.00 0.04 0.04 80 1011.0
20260507191005 56 24 0.0 6.0 0.00 0.04 0.04 80 1011.1
20260507190505 56 25 3.0 6.0 0.00 0.04 0.04 79 1011.0
20260507190006 56 29 2.0 3.0 0.00 0.05 0.04 78 1011.0
20260507185504 56 22 0.0 5.0 0.00 0.05 0.04 78 1011.1
20260507185005 56 23 0.0 5.0 0.00 0.05 0.04 78 1010.9
20260507184504 56 10 2.0 6.0 0.00 0.05 0.04 78 1011.0
20260507184005 56 358 3.0 6.0 0.00 0.05 0.04 78 1010.9
20260507183505 56 20 1.0 5.0 0.00 0.05 0.04 78 1010.9
20260507183006 56 17 1.0 5.0 0.00 0.05 0.04 78 1011.0
20260507182506 56 134 2.0 6.0 0.00 0.05 0.04 78 1011.1
20260507182004 56 145 3.0 6.0 0.00 0.05 0.04 77 1011.1
20260507181505 56 160 1.0 5.0 0.00 0.05 0.04 77 1011.1
20260507181004 56 67 2.0 5.0 0.00 0.05 0.04 78 1011.0
20260507180504 56 123 1.0 6.0 0.00 0.05 0.04 78 1011.1
20260507180004 56 129 2.0 6.0 0.00 0.05 0.04 78 1011.0
20260507175504 56 147 2.0 6.0 0.00 0.05 0.04 78 1011.0
20260507175004 56 75 0.0 6.0 0.00 0.05 0.04 79 1011.2
20260507174504 56 110 2.0 6.0 0.00 0.05 0.04 79 1011.2
20260507174005 56 142 2.0 5.0 0.00 0.05 0.04 79 1011.3
20260507173504 56 142 1.0 3.0 0.00 0.05 0.04 80 1011.4
20260507173005 56 138 2.0 3.0 0.00 0.05 0.04 81 1011.6
20260507172505 56 99 1.0 7.0 0.00 0.05 0.04 81 1011.4
20260507172005 56 33 2.0 7.0 0.00 0.05 0.04 81 1011.4
20260507171504 56 46 1.0 3.0 0.00 0.05 0.04 82 1011.4
20260507171005 55 36 1.0 7.0 0.00 0.05 0.04 82 1011.6
20260507170504 55 97 2.0 7.0 0.00 0.05 0.04 82 1011.8
20260507170005 55 53 3.0 8.0 0.00 0.05 0.04 83 1011.9
20260507165505 55 157 4.0 8.0 0.00 0.05 0.04 83 1011.9
20260507165005 55 9 2.0 7.0 0.00 0.05 0.04 85 1012.1
20260507164505 55 92 1.0 9.0 0.00 0.05 0.04 85 1012.1
20260507164005 55 138 1.0 9.0 0.00 0.05 0.04 85 1012.0
20260507163504 55 211 2.0 7.0 0.00 0.05 0.04 86 1011.9
20260507163004 55 118 3.0 7.0 0.00 0.05 0.04 86 1012.1
20260507162504 55 98 1.0 6.0 0.00 0.05 0.04 87 1012.3
20260507162005 55 132 2.0 6.0 0.00 0.05 0.04 87 1012.0
20260507161505 55 17 2.0 6.0 0.00 0.05 0.04 88 1012.1
20260507161005 55 54 2.0 3.0 0.00 0.05 0.04 87 1012.0
20260507160505 55 90 1.0 6.0 0.00 0.05 0.04 87 1012.3
20260507160005 55 54 2.0 6.0 0.00 0.05 0.04 86 1012.3
20260507155505 55 62 2.0 6.0 0.00 0.05 0.04 86 1012.2
20260507155005 55 44 1.0 6.0 0.00 0.05 0.04 85 1012.3
20260507154504 56 42 3.0 8.0 0.00 0.05 0.04 84 1012.1
20260507154005 56 41 2.0 8.0 0.00 0.05 0.04 83 1012.3
20260507153504 56 60 3.0 7.0 0.00 0.05 0.04 83 1012.5
20260507153005 56 56 2.0 9.0 0.00 0.05 0.04 83 1012.2
20260507152505 56 9 2.0 9.0 0.00 0.05 0.04 82 1012.1
20260507152005 56 35 5.0 9.0 0.00 0.05 0.04 82 1012.0
20260507151505 56 14 2.0 7.0 0.00 0.06 0.04 82 1012.1
20260507151005 56 27 3.0 7.0 0.00 0.06 0.04 81 1012.0
20260507150505 56 17 2.0 8.0 0.00 0.06 0.04 81 1012.2
20260507150005 56 58 3.0 8.0 0.00 0.06 0.04 81 1012.3
20260507145505 57 38 4.0 8.0 0.00 0.06 0.04 81 1012.4
20260507145004 57 48 2.0 15.0 0.00 0.06 0.04 81 1012.2
20260507144504 57 26 3.0 15.0 0.00 0.06 0.04 81 1012.0
20260507144005 57 51 3.0 15.0 0.00 0.06 0.04 81 1011.8
20260507143505 57 46 2.0 12.0 0.00 0.10 0.04 81 1011.8
20260507143004 57 31 2.0 10.0 0.00 0.12 0.04 82 1012.0
20260507142505 57 21 5.0 10.0 0.00 0.14 0.04 82 1012.1
20260507142005 57 13 1.0 8.0 0.00 0.15 0.04 82 1012.2
20260507141504 57 75 3.0 8.0 0.00 0.17 0.04 82 1012.1
20260507141006 57 96 2.0 8.0 0.00 0.18 0.04 82 1012.1
20260507140504 57 37 4.0 8.0 0.00 0.19 0.04 83 1012.3
20260507140006 57 355 3.0 8.0 0.00 0.19 0.04 83 1012.3
20260507135504 57 1 3.0 12.0 0.00 0.19 0.04 82 1012.3
20260507135004 57 22 5.0 12.0 0.00 0.20 0.04 82 1012.3
20260507134506 57 88 3.0 12.0 0.00 0.20 0.04 83 1012.4
20260507134004 57 52 3.0 12.0 0.00 0.20 0.04 83 1012.2
20260507133505 57 351 1.0 8.0 0.00 0.20 0.04 84 1012.0
20260507133004 57 297 3.0 10.0 0.00 0.20 0.04 85 1012.0
20260507132505 57 40 3.0 10.0 0.00 0.20 0.04 86 1011.9
20260507132004 57 48 2.0 8.0 0.00 0.20 0.04 86 1011.8
20260507131505 57 27 2.0 6.0 0.00 0.20 0.04 87 1012.1
20260507131004 57 53 3.0 8.0 0.00 0.20 0.04 87 1012.1
20260507130504 57 39 2.0 9.0 0.00 0.20 0.04 88 1012.0
20260507130005 57 56 3.0 9.0 0.00 0.20 0.04 88 1011.8
20260507125504 57 27 3.0 8.0 0.00 0.20 0.04 89 1011.8
20260507125004 57 33 2.0 6.0 0.00 0.20 0.04 90 1011.9
20260507124504 57 351 3.0 6.0 0.00 0.20 0.04 90 1011.8
20260507124004 57 17 3.0 7.0 0.00 0.20 0.04 89 1011.8
20260507123504 57 345 3.0 8.0 0.00 0.20 0.04 89 1011.7
20260507123005 57 349 2.0 8.0 0.00 0.20 0.04 89 1011.9
20260507122504 57 7 2.0 7.0 0.00 0.20 0.04 89 1011.9
20260507122005 57 5 3.0 7.0 0.00 0.20 0.04 89 1011.9
20260507121504 57 19 4.0 8.0 0.00 0.20 0.04 89 1011.6
20260507121005 57 22 2.0 8.0 0.00 0.20 0.04 89 1011.6
20260507120505 56 8 3.0 9.0 0.00 0.20 0.04 89 1011.5
20260507120006 56 50 3.0 9.0 0.00 0.20 0.04 88 1011.6
20260507115505 56 111 1.0 9.0 0.00 0.20 0.04 88 1011.7
20260507115004 56 118 3.0 9.0 0.00 0.20 0.04 88 1011.8
20260507114505 56 45 2.0 9.0 0.00 0.20 0.04 88 1011.8
20260507114005 56 14 3.0 8.0 0.00 0.20 0.04 89 1011.8
20260507113505 56 5 3.0 8.0 0.00 0.20 0.04 88 1011.8
20260507113005 56 37 2.0 8.0 0.00 0.20 0.04 89 1011.7
20260507112504 56 18 2.0 8.0 0.00 0.20 0.04 89 1011.5
20260507112004 56 41 2.0 7.0 0.00 0.20 0.04 89 1011.4
20260507111506 55 84 3.0 7.0 0.00 0.20 0.04 90 1011.3
20260507111005 55 30 2.0 5.0 0.00 0.20 0.04 90 1011.1
20260507110504 55 37 2.0 5.0 0.00 0.20 0.04 91 1011.4
20260507110004 55 104 2.0 5.0 0.00 0.20 0.04 91 1011.5
20260507105505 55 26 1.0 5.0 0.00 0.20 0.04 91 1011.3
20260507105005 55 35 2.0 5.0 0.00 0.20 0.04 91 1011.2
20260507104504 55 37 2.0 5.0 0.00 0.20 0.04 91 1011.1
20260507104005 55 32 0.0 5.0 0.00 0.20 0.04 92 1011.0
20260507103504 55 5 1.0 5.0 0.00 0.20 0.04 92 1011.0
20260507103006 55 28 2.0 5.0 0.00 0.20 0.04 92 1010.8
20260507102504 56 353 2.0 7.0 0.00 0.20 0.04 92 1010.8
20260507102006 56 348 3.0 7.0 0.03 0.20 0.04 92 1010.6
20260507101504 56 321 2.0 8.0 0.04 0.20 0.04 92 1010.4
20260507101004 56 333 2.0 8.0 0.04 0.20 0.04 92 1010.5
20260507100505 56 51 3.0 7.0 0.04 0.20 0.04 92 1010.8
20260507100005 56 6 3.0 9.0 0.04 0.20 0.04 92 1011.0
20260507095504 56 4 2.0 9.0 0.04 0.20 0.04 92 1011.1
20260507095006 57 21 3.0 6.0 0.04 0.20 0.04 92 1011.1
20260507094505 57 47 2.0 5.0 0.04 0.20 0.04 92 1010.9
20260507094005 57 36 2.0 7.0 0.04 0.20 0.04 92 1010.9
20260507093504 57 9 2.0 8.0 0.04 0.20 0.04 92 1011.0
20260507093005 57 5 3.0 8.0 0.04 0.20 0.04 92 1011.2
20260507092504 57 51 2.0 8.0 0.04 0.20 0.04 92 1011.1
20260507092004 57 44 4.0 12.0 0.01 0.17 0.01 92 1010.9
20260507091505 58 9 2.0 12.0 0.00 0.16 0.00 91 1010.9
20260507091004 58 76 2.0 10.0 0.00 0.16 0.00 91 1010.7
20260507090503 58 13 3.0 7.0 0.00 0.16 0.00 91 1010.7
20260507090005 58 55 2.0 12.0 0.00 0.16 0.00 91 1010.7
20260507085504 59 9 4.0 12.0 0.00 0.16 0.00 91 1010.7
20260507085004 59 5 2.0 9.0 0.00 0.16 0.00 91 1010.7
20260507084505 59 1 4.0 12.0 0.00 0.16 0.00 91 1010.6
20260507084004 60 32 3.0 13.0 0.00 0.16 0.00 90 1010.5
20260507083504 60 352 6.0 16.0 0.00 0.16 0.00 89 1010.5
20260507083005 61 9 5.0 16.0 0.00 0.16 0.00 89 1010.4
20260507082503 62 22 5.0 14.0 0.00 0.16 0.00 88 1010.1
20260507082004 63 31 3.0 12.0 0.00 0.16 0.00 88 1010.2
20260507081504 65 36 5.0 12.0 0.00 0.16 0.00 90 1010.3
20260507081004 66 8 6.0 10.0 0.00 0.16 0.00 91 1010.2
20260507080504 67 35 3.0 6.0 0.00 0.16 0.00 92 1010.0
20260507080004 67 4 2.0 6.0 0.00 0.16 0.00 92 1009.7
20260507075504 67 0 2.0 6.0 0.00 0.16 0.00 91 1009.5
20260507075004 67 23 3.0 5.0 0.00 0.16 0.00 91 1009.1
20260507074505 67 66 2.0 3.0 0.00 0.16 0.00 91 1009.1
20260507074004 67 331 2.0 3.0 0.00 0.16 0.00 91 1009.2
20260507073503 67 331 0.0 2.0 0.00 0.16 0.00 91 1009.5
20260507073004 67 331 0.0 3.0 0.00 0.16 0.00 90 1009.6
20260507072504 67 331 0.0 3.0 0.00 0.16 0.00 90 1009.3
20260507072004 67 331 1.0 3.0 0.00 0.16 0.00 90 1009.5
20260507071504 68 328 0.0 3.0 0.00 0.16 0.00 89 1009.5
20260507071003 68 328 0.0 2.0 0.00 0.16 0.00 89 1009.6
20260507070504 68 327 0.0 3.0 0.00 0.16 0.00 89 1009.4
20260507070009 68 328 1.0 3.0 0.00 0.16 0.00 89 1009.4
20260507065503 68 223 0.0 3.0 0.00 0.16 0.00 88 1009.2
20260507065004 68 220 2.0 5.0 0.00 0.16 0.00 88 1008.9
20260507064505 69 201 2.0 5.0 0.00 0.16 0.00 87 1008.8
20260507064004 69 209 1.0 3.0 0.00 0.16 0.00 87 1009.0
20260507063503 69 209 0.0 6.0 0.00 0.16 0.00 87 1009.0
20260507063005 69 210 1.0 6.0 0.00 0.16 0.00 86 1008.7
20260507062503 69 218 3.0 5.0 0.00 0.16 0.00 86 1008.7
20260507062004 69 217 2.0 5.0 0.00 0.16 0.00 86 1008.7
20260507061504 69 234 3.0 5.0 0.00 0.16 0.00 86 1008.5
20260507061004 69 220 2.0 3.0 0.00 0.16 0.00 86 1008.5
20260507060504 69 226 2.0 3.0 0.00 0.16 0.00 86 1008.5
20260507060004 69 231 1.0 5.0 0.00 0.16 0.00 86 1008.5
20260507055506 69 242 3.0 5.0 0.00 0.16 0.00 86 1008.6
20260507055005 69 219 2.0 5.0 0.00 0.16 0.00 86 1008.6
20260507054503 69 233 2.0 3.0 0.00 0.16 0.00 86 1008.8
20260507054004 69 230 2.0 3.0 0.00 0.16 0.00 86 1008.6
20260507053504 69 228 1.0 5.0 0.00 0.16 0.00 86 1008.6
20260507053005 69 228 1.0 5.0 0.00 0.16 0.00 86 1008.7
20260507052504 69 230 2.0 5.0 0.00 0.16 0.00 85 1008.7
20260507052004 69 218 2.0 7.0 0.00 0.16 0.00 86 1008.8
20260507051504 69 216 2.0 7.0 0.00 0.16 0.00 86 1009.1
20260507051004 69 229 2.0 8.0 0.00 0.16 0.00 86 1009.2
20260507050504 69 219 2.0 8.0 0.00 0.16 0.00 86 1009.5
20260507050003 69 220 3.0 8.0 0.00 0.16 0.00 86 1009.6
20260507045503 69 228 3.0 7.0 0.00 0.16 0.00 86 1009.8
20260507045003 69 229 2.0 5.0 0.00 0.16 0.00 86 1009.9
20260507044504 69 223 2.0 6.0 0.00 0.16 0.00 86 1009.9
20260507044006 69 218 3.0 6.0 0.00 0.16 0.00 86 1009.9
20260507043506 69 207 1.0 6.0 0.00 0.16 0.00 86 1009.9
20260507043006 69 219 3.0 7.0 0.00 0.16 0.00 86 1010.1
20260507042506 69 231 3.0 7.0 0.00 0.16 0.00 86 1010.2
20260507042006 69 226 3.0 6.0 0.00 0.16 0.00 86 1010.2
20260507041506 69 224 2.0 5.0 0.00 0.16 0.00 86 1010.0
20260507041006 69 213 3.0 5.0 0.00 0.16 0.00 86 1009.7
20260507040507 69 212 3.0 6.0 0.00 0.16 0.00 86 1009.5
20260507040006 69 211 3.0 6.0 0.00 0.16 0.00 86 1009.7
20260507035506 69 229 3.0 5.0 0.00 0.16 0.16 86 1009.8
20260507035006 69 230 2.0 3.0 0.00 0.16 0.16 86 1009.9
20260507034506 69 201 2.0 5.0 0.00 0.16 0.16 86 1010.1
20260507034006 69 212 3.0 5.0 0.00 0.16 0.16 86 1010.0
20260507033506 69 223 3.0 5.0 0.00 0.16 0.16 86 1010.0
20260507033006 69 199 2.0 7.0 0.00 0.16 0.16 86 1010.0
20260507032505 69 220 5.0 7.0 0.00 0.16 0.16 86 1009.8
20260507032006 69 220 2.0 6.0 0.00 0.16 0.16 86 1009.6
20260507031507 69 218 2.0 6.0 0.00 0.16 0.16 87 1009.5
20260507031007 69 220 2.0 5.0 0.00 0.16 0.16 87 1009.5
20260507030506 69 217 2.0 5.0 0.00 0.16 0.16 87 1009.4
20260507030006 69 220 2.0 5.0 0.00 0.16 0.16 87 1009.4
20260507025506 69 221 2.0 5.0 0.00 0.16 0.16 87 1009.4
20260507025006 69 220 2.0 5.0 0.00 0.16 0.16 86 1009.3
20260507024507 69 226 1.0 5.0 0.00 0.16 0.16 86 1009.2
20260507024006 69 213 1.0 7.0 0.00 0.16 0.16 86 1009.2
20260507023507 69 224 3.0 7.0 0.00 0.16 0.16 86 1009.5
20260507023006 69 226 1.0 6.0 0.00 0.16 0.16 86 1009.6
20260507022505 69 227 1.0 6.0 0.00 0.16 0.16 86 1009.6
20260507022006 69 237 3.0 8.0 0.00 0.16 0.16 86 1009.7
20260507021506 69 222 2.0 8.0 0.00 0.16 0.16 86 1009.7
20260507021006 69 220 3.0 8.0 0.00 0.16 0.16 86 1009.8
20260507020506 69 231 2.0 5.0 0.00 0.16 0.16 86 1009.9
20260507020008 69 232 2.0 3.0 0.00 0.16 0.16 86 1009.9
20260507015507 69 214 2.0 3.0 0.00 0.16 0.16 86 1009.9
20260507015006 69 214 1.0 3.0 0.00 0.16 0.16 86 1009.9
20260507014507 69 213 1.0 5.0 0.00 0.16 0.16 86 1010.0
20260507014006 69 238 2.0 5.0 0.00 0.16 0.16 86 1009.9
20260507013507 69 218 1.0 3.0 0.00 0.16 0.16 86 1010.0
20260507013006 69 219 2.0 3.0 0.00 0.16 0.16 86 1010.0
20260507012505 69 221 2.0 3.0 0.00 0.16 0.16 86 1009.9
20260507012005 69 221 2.0 3.0 0.00 0.16 0.16 86 1009.9
20260507011506 69 215 0.0 3.0 0.00 0.16 0.16 86 1009.9
20260507011006 69 221 0.0 3.0 0.00 0.16 0.16 85 1009.9
20260507010506 69 220 1.0 3.0 0.00 0.16 0.16 85 1009.8
20260507010006 69 222 2.0 3.0 0.00 0.16 0.16 85 1009.7
20260507005505 69 222 2.0 3.0 0.00 0.16 0.16 84 1009.5
20260507005006 69 222 1.0 3.0 0.00 0.16 0.16 84 1009.5
20260507004505 69 222 2.0 3.0 0.00 0.16 0.16 84 1009.8
20260507004007 69 213 2.0 3.0 0.00 0.16 0.16 84 1009.8
20260507003505 69 221 2.0 3.0 0.00 0.16 0.16 84 1010.0
20260507003005 69 207 3.0 3.0 0.00 0.16 0.16 83 1010.0
20260507002506 70 205 1.0 3.0 0.00 0.16 0.16 83 1009.9
20260507002006 70 213 2.0 5.0 0.00 0.16 0.16 83 1009.9
20260507001506 70 224 3.0 5.0 0.00 0.16 0.16 83 1009.9
20260507001006 70 230 2.0 6.0 0.00 0.16 0.16 82 1010.0
20260507000506 70 230 3.0 6.0 0.00 0.16 0.16 82 1010.0
20260507000006 70 230 3.0 6.0 0.00 0.16 0.16 82 1010.0
20260506235506 70 224 3.0 6.0 0.00 0.16 0.16 82 1009.9
20260506235006 70 220 3.0 6.0 0.00 0.16 0.16 81 1009.7
20260506234505 71 228 3.0 6.0 0.00 0.16 0.16 81 1009.7